Home   Weather   Grand Prairie   Past weeks

Flag for USA Past Weather in Grand Prairie, Texas, USA — Yesterday and Last 2 Weeks

Now
68 °F

Clear.


Feels Like: 68 °F
Forecast: 68 / 86 °F
Wind: 8 mph from Southeast

Location: Grand Prairie Municipal Airport

Current Time: Apr 27, 2017 at 11:36:01 pm

Latest Report: Apr 27, 2017 at 10:55 pm


Visibility: 10 mi

Pressure: 29.59 "Hg

Humidity: 56%

Dew Point: 52 °F

Location of Grand PrairieLocation

Past Weather in Grand Prairie — Graph

°F

Grand Prairie Temperature Yesterday

Maximum temperature yesterday: 75 °F (at 12:35 am)
Minimum temperature yesterday: 52 °F (at 11:35 pm)
Average temperature yesterday: 67 °F

High & Low Weather Summary for the Past Weeks

 TemperatureHumidityPressure
High84 °F (Apr 21, 4:50 pm)100% (Apr 13, 4:55 am)30.21 "Hg (Apr 13, 4:55 am)
Low43 °F (Apr 17, 1:50 pm)27% (Apr 23, 4:50 pm)29.43 "Hg (Apr 26, 1:55 am)
Average67 °F72%29.93 "Hg
* Reported Apr 12 10:15 pm — Apr 27 10:15 pm, Grand Prairie, Weather by CustomWeather, © 2017

Note: Actual official high and low records may vary slightly from our data, if they occured in-between our weather recording intervals... More about our weather records

Advertising

Grand Prairie Weather History for the Previous 24 Hours

Scroll right to see more
 ConditionsComfort  
Time TempWeatherWind HumidityBarometerVisibility
10:15 pm
Thu, Apr 27
68 °FClear.8 mph56%29.59 "Hg10 mi
9:55 pm68 °FClear.10 mph56%29.59 "Hg10 mi
9:35 pm68 °FClear.7 mph55%29.60 "Hg10 mi
8:50 pm72 °FClear.8 mph50%29.60 "Hg10 mi
7:50 pm72 °FSunny.N/A50%29.60 "Hg10 mi
6:50 pm73 °FSunny.12 mph41%29.60 "Hg10 mi
5:50 pm75 °FSunny.12 mph39%29.62 "Hg10 mi
4:50 pm75 °FSunny.12 mph36%29.64 "Hg10 mi
3:50 pm73 °FSunny.14 mph38%29.69 "Hg10 mi
2:50 pm72 °FSunny.14 mph41%29.71 "Hg10 mi
1:50 pm70 °FSunny.12 mph43%29.76 "Hg10 mi
12:50 pm66 °FSunny.12 mph49%29.81 "Hg10 mi
11:50 am64 °FSunny.9 mph52%29.83 "Hg10 mi
10:50 am63 °FSunny.12 mph56%29.84 "Hg10 mi
9:50 am59 °FSunny.7 mph63%29.84 "Hg10 mi
8:50 am54 °FSunny.9 mph77%29.84 "Hg10 mi
7:50 am52 °FSunny.7 mph82%29.83 "Hg10 mi
6:50 am50 °FSunny.No wind88%29.78 "Hg10 mi
6:35 am49 °FClear.No wind90%29.77 "Hg10 mi
6:15 am48 °FClear.No wind93%29.77 "Hg10 mi
5:55 am49 °FClear.No wind97%29.77 "Hg10 mi
5:35 am48 °FClear.No wind100%29.77 "Hg10 mi
5:15 am47 °FClear.No wind100%29.75 "Hg10 mi
4:55 am48 °FClear.No wind95%29.76 "Hg10 mi
4:35 am49 °FClear.No wind87%29.77 "Hg10 mi
4:15 am50 °FClear.No wind86%29.78 "Hg10 mi
3:55 am50 °FClear.No wind84%29.77 "Hg10 mi
3:35 am50 °FClear.No wind84%29.78 "Hg10 mi
3:15 am50 °FClear.No wind83%29.78 "Hg10 mi
2:55 am51 °FClear.No wind83%29.79 "Hg10 mi
2:35 am51 °FClear.No wind82%29.79 "Hg10 mi
2:15 am50 °FClear.No wind83%29.80 "Hg10 mi
1:55 am51 °FClear.No wind82%29.81 "Hg10 mi
1:35 am51 °FClear.No wind85%29.81 "Hg10 mi
1:15 am53 °FClear.No wind77%29.81 "Hg10 mi
12:55 am53 °FClear.No wind77%29.82 "Hg10 mi
12:35 am55 °FClear.No wind72%29.82 "Hg10 mi
12:15 am55 °FClear.3 mph71%29.83 "Hg10 mi
11:55 pm
Wed, Apr 26
53 °FClear.No wind75%29.83 "Hg10 mi
11:35 pm52 °FClear.No wind77%29.83 "Hg10 mi
Weather by CustomWeather, © 2017

See weather overviewHow to use our weather pages